Location: Newark
(7.0858°N, 171.3717°E)
Time: 15:40:16
(UTC+00:00)

Courier 1B Rocket - Pass Details

Date: 04 December 2020
Orbit: 920 x 1202 km, 28.2° (Epoch: 20 January)

Event Time Altitude Azimuth Distance (km) Brightness Sun altitude
Rises 11:02:21 0° 218° (SW) 3,647 - -64.9°
Reaches altitude 10° 11:05:17 10° 207° (SSW) 2,738 - -65.5°
Maximum altitude 11:11:00 30° 148° (SSE) 1,758 - -66.6°
Drops below altitude 10° 11:17:03 10° 90° (E) 2,915 - -67.6°
Sets 11:20:15 0° 80° (E) 3,920 - -68.2°
